Regional Weather Roundup
Issued by NWS New Orleans/Baton Rouge, LA

Home | Current Version | Previous Version | Text Only | Print | Product List | Glossary On
Versions: 1 2 3 4 5 6 7 8 9 10 11 12 13 14 15 16 17 18 19 20 21 22 23 24 25 26 27 28 29 30 31 32 33 34 35 36 37 38 39 40 41 42 43 44 45 46 47 48 49 50
637
ASUS44 KLIX 311607
RWRLIX
NEW ORLEANS REGIONAL WEATHER ROUNDUP
NATIONAL WEATHER SERVICE NEW ORLEANS LA
1100 AM CDT TUE MAR 31 2015

NOTE: "FAIR" INDICATES FEW OR NO CLOUDS BELOW 12,000 FEET WITH NO
      SIGNIFICANT WEATHER AND/OR OBSTRUCTIONS TO VISIBILITY.
      SKY/WX - SKY CONDITION AND SIGNIFICANT WEATHER.
      TMP - AIR TEMPERATURE.     DP    - DEWPOINT TEMPERATURE.
      RH  - RELATIVE HUMIDITY.   PRES  - PRESSURE.
      HI  - HEAT INDEX.          WCI   - WIND CHILL INDEX.

*  THESE STATIONS ARE NOT NWS OR FAA STATIONS AND ARE NOT UNDER
   NWS QUALITY CONTROL.

LAZ038-040-048-061>063-065>067-069-311700-
SOUTHEAST LOUISIANA

CITY           SKY/WX    TMP DP  RH WIND       PRES   REMARKS
N.O. AUDUBON   NOT AVBL
N.O. INTL ARPT PTSUNNY   76  65  68 SW9       30.15S
N.O. LAKEFRONT PTSUNNY   75  65  70 W8        30.16R
SLIDELL        PTSUNNY   75  65  70 SW10      30.14S
BATON ROUGE    PTSUNNY   76  63  64 W10G22    30.14R
BOOTHVILLE     MOSUNNY   76  65  68 S9        30.17R
BELLE CHASSE   PTSUNNY   75  65  70 SW9       30.15S
BOGALUSA*        N/A     76  60  58 SW13G21   30.16S
GALLIANO*      MOSUNNY   79  65  62 SW12      30.16S
NEW ROADS*     PTSUNNY   73  62  68 SW10G17   30.14S
GONZALES*      PTSUNNY   76  65  69 SW12G18   30.14S
HAMMOND*       PTSUNNY   77  59  53 W12G20    30.15S
HOUMA*         NOT AVBL
PORT FOURCHON* MOSUNNY   77  64  65 W7        30.19S

$$

MSZ070-080>082-311700-
SOUTHERN MISSISSIPPI

CITY           SKY/WX    TMP DP  RH WIND       PRES   REMARKS
MCCOMB         PTSUNNY   72  61  68 SW9       30.13S
GULFPORT       PTSUNNY   75  63  66 SW7       30.14S
BILOXI         MOSUNNY   75  66  74 SW10      30.15R
PASCAGOULA     PTSUNNY   77  63  61 SW9G17    30.15S

$$

COASTAL OBSERVATIONS
LAKE AND NEARSHORE STATIONS

STATION/POSITION TIME  TEMP    WIND        PRES    WAVE
                       AIR SEA DIR/SP/G            HT/PER
                 (UTC) (F)     (DEG/KT/KT) (MB)    (FT/S)
PASCAGOULA       1500   70     240/  8/ 10 1020.6
WAVELAND YACHT   1500   72 69  210/  5/  7 1020.8
GRAND ISLE       1500   72 70  160/  4/  5 1020.9
SOUTHWEST PASS   1500   73 54  130/  2/  3 1021.5
NEW CANAL        1500   73     240/  4/  6 1021.2
SHELL BEACH      1500   72 70  220/  7/ 11 1021.0

OFFSHORE STATIONS

STATION/POSITION TIME  TEMP    WIND        PRES    WAVE
                       AIR SEA DIR/SP/G            HT/PER
                 (UTC) (F)     (DEG/KT/KT) (MB)    (FT/S)
64 S DAUPHIN ISL 1550   71 72  200/  4/  6 1021.6    2/ 8

$$




USA.gov is the U.S. government's official web portal to all federal, state and local government web resources and services.